Regional Weather Roundup
Issued by NWS

Home | Current Version | Previous Version | Text Only | Print | Product List | Glossary On
Versions: 1 2 3 4 5 6 7 8 9 10 11 12 13 14 15 16 17 18 19 20 21 22 23 24 25 26 27 28 29 30 31 32 33 34 35 36 37 38 39 40 41 42 43 44 45 46 47 48 49 50
000
ASUS45 KREV 050410
RWRNV
NEVADA REGIONAL WEATHER ROUNDUP
NATIONAL WEATHER SERVICE RENO NV
900 PM PDT FRI SEP 04 2015

NOTE: "FAIR" INDICATES FEW OR NO CLOUDS BELOW 12,000 FEET WITH NO
SIGNIFICANT WEATHER AND/OR OBSTRUCTIONS TO VISIBILITY.

NVZ001-003-004-050500-
WESTERN NEVADA

CITY           SKY/WX    TMP DP  RH WIND       PRES   REMARKS
RENO           CLEAR     61  13  15 NW13      29.91R
CARSON CITY    FAIR      59  12  15 W9G18     29.93R
MINDEN         FAIR      57  18  21 W13G20    29.93R
SLIDE MTN        N/A     36   9  32 W39         N/A
PYRAMID LAKE     N/A     63 N/A N/A N1          N/A
FALLON         PTCLDY    65  12  12 W18       29.85R
LOVELOCK       CLEAR     62  23  22 NW8       29.86R
HAWTHORNE      CLEAR     72  25  17 SW24G30   29.79R
$$

NVZ002-CAZ072-073-050500-
NORTHERN AND CENTRAL SIERRA

CITY           SKY/WX    TMP DP  RH WIND       PRES   REMARKS
S. LAKE TAHOE  PTCLDY    51  19  28 SW6       29.99R
TRUCKEE        CLEAR     41  14  33 SE6       29.99R
SQUAW VLY 8000   N/A     39  12  33 W10         N/A
SUSANVILLE     CLEAR     54  19  26 CALM      29.91R
BLUE CANYON    CLEAR     50  30  46 S3        29.99R
MAMMOTH LAKES  FAIR      52  34  50 W10G16    30.02R
BRIDGEPORT     FAIR      52  25  35 S7        29.97R
$$

NVZ030-031-036-050500-
NORTHERN NEVADA

CITY           SKY/WX    TMP DP  RH WIND       PRES   REMARKS
ELKO           MOCLDY    64  24  21 NW10G18   29.83R
WINNEMUCCA     CLEAR     52  30  43 NE7       29.89R
WENDOVER       CLEAR     79  19  11 SW17      29.71R
$$

NVZ035-037-050500-
CENTRAL NEVADA

CITY           SKY/WX    TMP DP  RH WIND       PRES   REMARKS
ELY            PTCLDY    65  20  17 S9        29.92R
EUREKA           N/A     66  13  12 W15       29.87R
$$

NVZ013-014-050500-
SOUTH CENTRAL NEVADA

CITY           SKY/WX    TMP DP  RH WIND       PRES   REMARKS
TONOPAH        CLEAR     66  17  15 S10       29.87R
$$

NVZ017-020-022-050500-
SOUTHERN NEVADA

CITY           SKY/WX    TMP DP  RH WIND       PRES   REMARKS
LAS VEGAS      CLEAR     88  26  10 S12       29.71R
N. LAS VEGAS   CLEAR     88  27  11 SW13      29.73R
NELLIS AFB     CLEAR     88  29  12 S15       29.71R
HENDERSON      CLEAR     85  30  13 S21       29.78
MERCURY        CLEAR     78  14   9 SW12G23   29.79R
$$



USA.gov is the U.S. government's official web portal to all federal, state and local government web resources and services.